Weather History for Mount Airy, NC

Change the Weather History Date:

Tuesday, December 24, 2013

  Actual Average (KINT) Record (KINT)
Temperature  
Mean Temperature 34 °F -  
Max Temperature 42 °F 47 °F 70 °F (1990)
Min Temperature 24 °F 29 °F 1 °F (1989)
Degree Days  
Heating Degree Days 32    
Moisture  
Dew Point 20 °F    
Average Humidity 56    
Maximum Humidity 78    
Minimum Humidity 32    
Precipitation  
Precipitation 0.00 in - - ()
Sea Level Pressure  
Sea Level Pressure 30.27 in    
Wind  
Wind Speed 7 mph (NW)    
Max Wind Speed 15 mph    
Max Gust Speed 24 mph    
Visibility 10 miles    
Events      
Averages and records for this station are not official NWS values.
T = Trace of Precipitation, MM = Missing Value Source: NWS Daily Summary

Daily Weather History Graph

Daily Weather History Graph

Search for Another Location

Airport:

Trip Planner

Search our weather history database for the weather conditions in past years. The results will help you decide how hot, cold, wet, or windy it might be!

Date:

Astronomy

Dec. 24, 2013 Rise Set
Actual Time 7:31 AM EST 5:12 PM EST
Civil Twilight 7:02 AM EST 5:41 PM EST
Nautical Twilight 6:30 AM EST 6:13 PM EST
Astronomical Twilight 5:59 AM EST 6:44 PM EST
Moon No Moon Rise 11:35 AM EST (12/24)
Length of Visible Light 10h 38m
Length of Day
9h 40m
Waning Gibbous, 59% of the Moon is Illuminated
Dec 24
Waning Gibbous
Dec 25
Last Quarter
Jan 1
New
Jan 7
First Quarter
Jan 15
Full

Hourly Weather History & Observations

Time (EST) Temp. Windchill Dew Point Humidity Pressure Visibility Wind Dir Wind Speed Gust Speed Precip Events Conditions
12:15 AM 38.3 °F 32.5 °F 27.5 °F 65% 30.18 in 10.0 mi NNW 8.1 mph - N/A   Clear
12:35 AM 37.8 °F 31.8 °F 27.1 °F 66% 30.17 in 10.0 mi NNW 8.1 mph - N/A   Clear
12:55 AM 37.6 °F 31.0 °F 27.1 °F 66% 30.17 in 10.0 mi NNW 9.2 mph - N/A   Clear
1:15 AM 37.6 °F 31.6 °F 27.0 °F 66% 30.17 in 10.0 mi NNW 8.1 mph - N/A   Clear
1:35 AM 36.9 °F 30.7 °F 26.8 °F 67% 30.17 in 10.0 mi NNW 8.1 mph - N/A   Clear
1:55 AM 36.7 °F 31.2 °F 27.0 °F 68% 30.17 in 10.0 mi NNW 6.9 mph - N/A   Clear
2:15 AM 36.3 °F 32.5 °F 27.0 °F 69% 30.17 in 10.0 mi NNW 4.6 mph - N/A   Clear
2:35 AM 35.8 °F 29.4 °F 26.6 °F 69% 30.17 in 10.0 mi NNW 8.1 mph - N/A   Clear
2:55 AM 35.6 °F 28.6 °F 26.6 °F 70% 30.17 in 10.0 mi NW 9.2 mph 16.1 mph N/A   Clear
3:15 AM 35.1 °F 28.6 °F 26.4 °F 71% 30.17 in 10.0 mi NW 8.1 mph - N/A   Clear
3:35 AM 34.9 °F 29.9 °F 26.2 °F 71% 30.17 in 10.0 mi NW 5.8 mph - N/A   Clear
3:55 AM 34.3 °F 30.2 °F 26.1 °F 72% 30.17 in 10.0 mi NW 4.6 mph - N/A   Clear
4:15 AM 33.6 °F - 26.1 °F 74% 30.17 in 10.0 mi Calm Calm - N/A   Clear
4:35 AM 33.4 °F 30.4 °F 25.9 °F 74% 30.17 in 10.0 mi NNW 3.5 mph - N/A   Clear
4:55 AM 33.3 °F 27.1 °F 26.1 °F 75% 30.17 in 10.0 mi NW 6.9 mph - N/A   Clear
5:15 AM 33.8 °F 27.0 °F 25.7 °F 72% 30.17 in 10.0 mi NNW 8.1 mph - N/A   Clear
5:35 AM 33.1 °F 28.7 °F 25.7 °F 74% 30.17 in 10.0 mi NW 4.6 mph - N/A   Clear
5:55 AM 32.9 °F 27.5 °F 25.7 °F 75% 30.18 in 10.0 mi NW 5.8 mph - N/A   Clear
6:15 AM 32.2 °F 28.9 °F 25.3 °F 76% 30.19 in 10.0 mi NW 3.5 mph - N/A   Clear
6:35 AM 32.2 °F 28.9 °F 25.3 °F 76% 30.20 in 10.0 mi NNW 3.5 mph - N/A   Clear
6:55 AM 32.2 °F - 25.3 °F 76% 30.20 in 10.0 mi Calm Calm - N/A   Clear
7:15 AM 31.6 °F - 25.5 °F 78% 30.22 in 10.0 mi Calm Calm - N/A   Clear
7:35 AM 32.4 °F 26.9 °F 25.2 °F 75% 30.22 in 10.0 mi NW 5.8 mph - N/A   Clear
7:55 AM 32.5 °F 28.1 °F 25.2 °F 74% 30.23 in 10.0 mi NW 4.6 mph - N/A   Clear
8:15 AM 33.6 °F 27.5 °F 25.5 °F 72% 30.23 in 10.0 mi NNW 6.9 mph - N/A   Clear
8:35 AM 34.9 °F 28.3 °F 25.7 °F 69% 30.24 in 10.0 mi NW 8.1 mph - N/A   Clear
8:55 AM 35.8 °F 30.9 °F 25.9 °F 67% 30.24 in 10.0 mi NW 5.8 mph - N/A   Clear
9:15 AM 36.5 °F 29.2 °F 25.3 °F 64% 30.25 in 10.0 mi NW 10.4 mph 18.4 mph N/A   Clear
9:35 AM 37.0 °F 28.9 °F 24.6 °F 61% 30.25 in 10.0 mi NW 12.7 mph 24.2 mph N/A   Clear
9:55 AM 37.6 °F 29.6 °F 25.2 °F 61% 30.27 in 10.0 mi NW 12.7 mph 21.9 mph N/A   Clear
10:15 AM 38.3 °F 29.7 °F 24.3 °F 57% 30.28 in 10.0 mi NW 15.0 mph 23.0 mph N/A   Clear
10:35 AM 39.0 °F 32.8 °F 24.4 °F 56% 30.28 in 10.0 mi NW 9.2 mph 19.6 mph N/A   Scattered Clouds
10:55 AM 39.9 °F 32.1 °F 24.6 °F 54% 30.27 in 10.0 mi NW 13.8 mph 18.4 mph N/A   Clear
11:15 AM 40.5 °F 33.2 °F 24.1 °F 52% 30.27 in 10.0 mi NW 12.7 mph 17.3 mph N/A   Scattered Clouds
11:35 AM 41.7 °F 34.8 °F 25.0 °F 52% 30.27 in 10.0 mi NW 12.7 mph 19.6 mph N/A   Scattered Clouds
11:55 AM 40.3 °F 33.9 °F 23.4 °F 51% 30.26 in 10.0 mi WNW 10.4 mph 16.1 mph N/A   Scattered Clouds
12:15 PM 41.0 °F 33.9 °F 21.2 °F 45% 30.25 in 10.0 mi NW 12.7 mph 20.7 mph N/A   Scattered Clouds
12:35 PM 41.4 °F 35.2 °F 20.5 °F 43% 30.25 in 10.0 mi WNW 10.4 mph 19.6 mph N/A   Scattered Clouds
12:55 PM 42.1 °F 35.7 °F 19.8 °F 41% 30.25 in 10.0 mi WNW 11.5 mph 19.6 mph N/A   Mostly Cloudy
1:15 PM 40.6 °F 33.4 °F 19.6 °F 43% 30.25 in 10.0 mi NNW 12.7 mph 18.4 mph N/A   Scattered Clouds
1:35 PM 41.7 °F 36.1 °F 18.5 °F 39% 30.25 in 10.0 mi WNW 9.2 mph 17.3 mph N/A   Scattered Clouds
1:55 PM 41.2 °F 36.6 °F 17.8 °F 39% 30.25 in 10.0 mi North 6.9 mph 21.9 mph N/A   Scattered Clouds
2:15 PM 40.8 °F 35.0 °F 16.7 °F 38% 30.26 in 10.0 mi NNW 9.2 mph - N/A   Scattered Clouds
2:35 PM 40.3 °F 33.9 °F 15.3 °F 36% 30.27 in 10.0 mi WNW 10.4 mph - N/A   Clear
2:55 PM 40.5 °F 35.1 °F 16.2 °F 37% 30.28 in 10.0 mi NNW 8.1 mph 16.1 mph N/A   Scattered Clouds
3:15 PM 38.8 °F 30.8 °F 15.1 °F 38% 30.29 in 10.0 mi NW 13.8 mph 20.7 mph N/A   Scattered Clouds
3:35 PM 38.3 °F 30.1 °F 11.1 °F 33% 30.29 in 10.0 mi NW 13.8 mph 21.9 mph N/A   Clear
3:55 PM 37.6 °F 30.0 °F 9.7 °F 32% 30.30 in 10.0 mi WNW 11.5 mph 19.6 mph N/A   Clear
4:15 PM 36.9 °F 29.6 °F 10.0 °F 33% 30.31 in 10.0 mi WNW 10.4 mph 24.2 mph N/A   Clear
4:35 PM 36.0 °F 29.0 °F 9.7 °F 34% 30.32 in 10.0 mi WNW 9.2 mph 19.6 mph N/A   Clear
4:55 PM 34.7 °F 28.8 °F 14.7 °F 44% 30.32 in 10.0 mi NNW 6.9 mph - N/A   Clear
5:15 PM 33.4 °F 25.4 °F 14.5 °F 46% 30.33 in 10.0 mi NW 10.4 mph - N/A   Clear
5:35 PM 33.1 °F 25.5 °F 13.3 °F 44% 30.34 in 10.0 mi NW 9.2 mph 17.3 mph N/A   Clear
5:55 PM 32.0 °F 28.7 °F 14.0 °F 48% 30.35 in 10.0 mi NNW 3.5 mph - N/A   Clear
6:15 PM 32.0 °F 28.7 °F 12.7 °F 45% 30.36 in 10.0 mi NNW 3.5 mph - N/A   Clear
6:35 PM 31.3 °F 26.6 °F 11.7 °F 44% 30.36 in 10.0 mi NNW 4.6 mph - N/A   Clear
6:55 PM 31.1 °F 25.4 °F 11.3 °F 44% 30.37 in 10.0 mi NNW 5.8 mph - N/A   Clear
7:15 PM 30.4 °F 24.5 °F 11.8 °F 46% 30.38 in 10.0 mi NNW 5.8 mph - N/A   Clear
7:35 PM 29.8 °F 26.3 °F 12.9 °F 49% 30.38 in 10.0 mi North 3.5 mph - N/A   Clear
7:55 PM 30.0 °F 23.2 °F 10.9 °F 45% 30.38 in 10.0 mi North 6.9 mph 16.1 mph N/A   Clear
8:15 PM 29.7 °F 24.7 °F 10.8 °F 45% 30.39 in 10.0 mi North 4.6 mph - N/A   Clear
8:35 PM 29.1 °F 25.4 °F 11.1 °F 47% 30.39 in 10.0 mi North 3.5 mph - N/A   Clear
8:55 PM 28.4 °F 21.2 °F 11.7 °F 50% 30.40 in 10.0 mi North 6.9 mph - N/A   Clear
9:15 PM 28.8 °F 21.7 °F 9.7 °F 45% 30.40 in 10.0 mi NNW 6.9 mph - N/A   Clear
9:35 PM 28.4 °F 21.2 °F 10.2 °F 47% 30.41 in 10.0 mi North 6.9 mph - N/A   Clear
9:55 PM 28.0 °F 24.2 °F 9.9 °F 47% 30.41 in 10.0 mi NNW 3.5 mph - N/A   Clear
10:15 PM 27.5 °F - 10.4 °F 49% 30.41 in 10.0 mi Calm Calm - N/A   Clear
10:35 PM 27.3 °F 23.4 °F 10.9 °F 50% 30.42 in 10.0 mi NNW 3.5 mph - N/A   Clear
10:55 PM 27.0 °F - 10.8 °F 51% 30.42 in 10.0 mi Calm Calm - N/A   Clear
11:15 PM 27.0 °F 23.0 °F 10.4 °F 50% 30.43 in 10.0 mi NNW 3.5 mph - N/A   Clear
11:35 PM 25.9 °F 21.7 °F 11.5 °F 55% 30.43 in 10.0 mi NW 3.5 mph - N/A   Clear
11:55 PM 24.6 °F - 13.5 °F 63% 30.43 in 10.0 mi Calm Calm - N/A   Clear